Regional Weather Roundup
Issued by NWS San Angelo, TX

Home | Current Version | Previous Version | Text Only | Print | Product List | Glossary On
Versions: 1 2 3 4 5 6 7 8 9 10 11 12 13 14 15 16 17 18 19 20 21 22 23 24 25 26 27 28 29 30 31 32 33 34 35 36 37 38 39 40 41 42 43 44 45 46 47 48 49 50
695
ASUS44 KSJT 211815
RWRSJT
WEST CENTRAL TEXAS REGIONAL WEATHER ROUNDUP
NATIONAL WEATHER SERVICE SAN ANGELO TX
100 PM CDT WED AUG 21 2019

NOTE: "FAIR" INDICATES FEW OR NO CLOUDS BELOW 12,000 FEET WITH NO
SIGNIFICANT WEATHER AND/OR OBSTRUCTIONS TO VISIBILITY.

TXZ049-054-064>066-071>073-076>078-098-099-113-114-127-128-139-140-
154-155-168>170-211900
...LOCATIONS ACROSS WEST CENTRAL TEXAS...

CITY           SKY/WX    TMP DP  RH WIND       PRES   REMARKS
SAN ANGELO     MOSUNNY   94  62  34 S8        30.05F
ABILENE        SUNNY     95  60  31 S13G18    30.05F
DYESS AFB      MOSUNNY   95  57  28 S12G18    30.03F
JUNCTION       SUNNY     93  62  35 S10G17    30.06F
SWEETWATER     MOSUNNY   94  58  29 S10       30.09
BROWNWOOD      NOT AVBL
COLEMAN        CLEAR     94  60  31 S8        30.06F
SONORA         SUNNY     91  59  33 E13       30.12F
OZONA          FAIR      91  57  31 S15G23    30.10F
BRADY          SUNNY     91  59  33 SE7G16    30.06F
$$

TEXAS PANHANDLE/OKLAHOMA PANHANDLE

CITY           SKY/WX    TMP DP  RH WIND       PRES   REMARKS
AMARILLO       SUNNY     92  55  28 SW16      30.09F
BORGER         SUNNY     93  56  28 SW10G18   30.05F
CANADIAN       SUNNY     99  57  24 S9G18     30.00F
DALHART        SUNNY     96  51  21 SW18G25   30.10F
DUMAS          CLEAR     94  54  25 S14G26    30.08F
GUYMON         NOT AVBL
HEREFORD       CLEAR     94  55  26 SW12G20   30.12F
PAMPA          CLEAR     96  53  23 SW16G25   30.08F
PERRYTON       SUNNY     94  56  28 SW14G21   30.03
$$

SOUTHERN PANHANDLE/SOUTH PLAINS/ROLLING PLAINS

CITY           SKY/WX    TMP DP  RH WIND       PRES   REMARKS
LUBBOCK        MOSUNNY   92  56  29 W8G17     30.10F
SNYDER         MOSUNNY   91  60  35 S9G18     30.08
CHILDRESS      SUNNY     96  61  31 S12       30.02F
SEMINOLE       CLEAR     90  54  29 SE9       30.15F
$$

PERMIAN BASIN

CITY           SKY/WX    TMP DP  RH WIND       PRES   REMARKS
MIDLAND        MOSUNNY   92  59  33 SE9G17    30.08F
ODESSA         SUNNY     91  56  30 S14G23    30.10F
WINK           SUNNY     93  55  27 S16G22    30.05F
$$

FAR WEST/SOUTHWEST MOUNTAINS/TRANS PECOS

CITY           SKY/WX    TMP DP  RH WIND       PRES   REMARKS
ALPINE         CLEAR     85  50  29 SE5       30.21F
DRYDEN           N/A     94  61  33 SE14G24   30.03F
EL PASO        MOSUNNY   94  49  21 E8        30.08F
FORT STOCKTON  SUNNY     89  58  34 SE15G22   30.08F
GUADALUPE PASS MOSUNNY   82  47  29 E8G24     30.24F
MARFA          SUNNY     84  54  35 VRB5      30.20F
PECOS          CLEAR     94  54  25 E10G16    30.03F
$$

DALLAS/FORT WORTH METROPLEX

CITY           SKY/WX    TMP DP  RH WIND       PRES   REMARKS
DFW AIRPORT    MOSUNNY   94  69  44 SE6       30.00F
FTW MEACHAM    SUNNY     94  68  42 SE5       30.00F
DAL-EXECUTIVE  SUNNY     93  67  42 CALM      30.01F
GRAND PRAIRIE  SUNNY     93  63  36 S7        30.03F
ADDISON        SUNNY     95  66  38 S7        30.02F
MESQUITE       PTCLDY    93  68  43 SE7       30.02F
LANCASTER      PTCLDY    94  68  42 S3        30.02F
$$

NORTH CENTRAL TEXAS

CITY           SKY/WX    TMP DP  RH WIND       PRES   REMARKS
SHRMAN/DENISON CLEAR     95  73  49 E9        30.02F
GAINESVILLE    MOSUNNY   95  66  38 SW8       30.03F
BRIDGEPORT     PTCLDY    97  65  33 S5        30.02  HAZE
DENTON         SUNNY     96  69  41 SE8       30.01F
WAXAHACHIE     CLEAR     94  69  42 SE3       30.03F
GRANBURY       CLEAR     98  64  33 E10       30.02F
$$

WESTERN NORTH TEXAS

CITY           SKY/WX    TMP DP  RH WIND       PRES   REMARKS
WICHITA FALLS  MOSUNNY   98  62  30 SE14      29.99F
VERNON         CLEAR    100  60  27 S9G18     29.99
BRECKENRIDGE   PTCLDY    96  61  31 SW8       30.02F HAZE
COMANCHE       SUNNY     96  64  33 S5        30.04F
$$

CENTRAL AND SOUTH CENTRAL TEXAS

CITY           SKY/WX    TMP DP  RH WIND       PRES   REMARKS
AUSTIN/BERGSTM PTSUNNY   94  68  42 S12       30.03F
WACO           SUNNY     94  68  42 S8        30.02F
HILLSBORO      NOT AVBL
TEMPLE         SUNNY     93  68  43 VRB3      30.04F
KILLEEN-GRAY   MOSUNNY   92  64  38 S9        30.03
FORT HOOD      SUNNY     94  66  39 E6        29.99F
GEORGETOWN     MOSUNNY   91  67  44 SW10      30.05F
LAGO VISTA     FAIR      91  67  46 S6        30.07F
SAN MARCOS     PTSUNNY   94  68  42 S9        30.04F
NEW BRAUNFELS  SUNNY     93  66  40 S9        30.02F
RANDOLPH AFB   MOSUNNY   91  68  46 CALM      30.04
SAN ANTONIO    MOSUNNY   91  67  44 VRB6      30.04F
STINSON        MOSUNNY   92  67  43 VRB6      30.01F
PLEASANTON     NOT AVBL
LA GRANGE      PTSUNNY   92  70  47 CALM      30.01F
GIDDINGS       CLEAR     95  67  39 CALM      30.04F
$$

EAST TEXAS

CITY           SKY/WX    TMP DP  RH WIND       PRES   REMARKS
PARIS          MOSUNNY   92  72  51 W5        30.03F
CLARKSVILLE    NOT AVBL
TYLER          MOSUNNY   93  67  42 CALM      30.04F
LONGVIEW       PTSUNNY   94  73  50 VRB3      30.03F
PALESTINE      MOCLDY    93  72  51 SE3       30.06F
NACOGDOCHES    MOSUNNY   93  72  50 VRB5      30.05F
$$

TEXAS HILL COUNTRY AND EDWARDS PLATEAU

CITY           SKY/WX    TMP DP  RH WIND       PRES   REMARKS
LLANO          PTCLDY    97  64  34 E7        30.06F
HORSESHOE BAY  FAIR      93  63  36 SE6       30.04F
KERRVILLE      SUNNY     92  62  36 SE9       30.07F
FREDERICKSBRG  SUNNY     89  58  35 E7        30.08F
ROCKSPRINGS    CLEAR     86  63  45 SE8G15    30.14F
HONDO          MOSUNNY   91  66  43 SE5       30.04F
UVALDE         CLEAR     91  65  42 SE6G18    30.04S
DEL RIO        SUNNY     93  65  39 SE8G21    29.99F
$$

SOUTHEAST TEXAS

CITY           SKY/WX    TMP DP  RH WIND       PRES   REMARKS
COLLEGE STN    SUNNY     93  67  42 S7        30.03F
CALDWELL       MOCLDY    93  69  44 SW7       30.04F
CROCKETT       PTCLDY    93  68  43 SE5       30.07F
BRENHAM        PTSUNNY   94  69  43 CALM      30.04F
HUNTSVILLE     MOSUNNY   93  69  45 MISG      30.05F
CONROE         PTSUNNY   92  70  48 W7        30.04F
HOUSTON BUSH   PTSUNNY   92  68  45 SW5       30.02F
HOUSTON HOBBY  FAIR      93  70  46 SW5       30.02F
PERLAND        FAIR      91  73  55 SE13G18   30.05F
WHARTON        CLOUDY    91  65  42 SW5       30.03F
$$

THE UPPER TEXAS COAST

CITY           SKY/WX    TMP DP  RH WIND       PRES   REMARKS
ORANGE         MOCLDY    89  79  73 NW7       30.07S
PORT ARTHUR    FAIR      92  76  59 VRB7      30.04F
GALVESTON      FAIR      92  77  61 S9        30.05F
ANGLETON       CLOUDY    92  73  53 S12       30.03F
BAY CITY       FAIR      95  73  48 SE7       30.03S
$$

TEXAS COASTAL BEND, RIO GRANDE PLAINS DEEP SOUTH TEXAS

CITY           SKY/WX    TMP DP  RH WIND       PRES   REMARKS
VICTORIA       LGT RAIN  80  75  84 SE7       30.03R
BEEVILLE       NOT AVBL
ROCKPORT       SUNNY     91  75  59 SE12      30.01F
PORT ARANSAS   CLEAR     89  76  65 SE8       30.02F
PORT LAVACA    MOCLDY    89  77  67 NE9       30.02F
CORPUS CHRISTI PTSUNNY   96  71  44 SE9       29.99F
KINGSVILLE NAS MOSUNNY   96  72  45 SE13G21   29.98
COTULLA        MOSUNNY   94  65  38 S12G17    29.99F
LAREDO         PTSUNNY   94  68  42 VRB5      29.97F
BROWNSVILLE    PTSUNNY   95  75  52 E13       29.96F
PORT ISABEL    FAIR      92  74  55 E15       29.97F
HEBBRONVILLE   PTCLDY    93  63  37 CALM      30.00F
MCALLEN        MOSUNNY   98  70  40 SE10      29.96F
WESLACO        NOT AVBL
FALFURRIAS     PTCLDY    97  68  39 SE10      29.96F
EDINBURG       MOCLDY    96  67  39 E10G16    29.97F
$$




USA.gov is the U.S. government's official web portal to all federal, state and local government web resources and services.